Location: Cz?stochówka
(50.8142°N, 19.0915°E)
Time: 14:18:32
(UTC+00:00)

Cosmos 2366 rocket - Pass Details

Date: 14 April 2026
Orbit: 954 x 996 km, 82.9° (Epoch: 16 May)

Event Time Altitude Azimuth Distance (km) Brightness Sun altitude
Rises 20:55:34 0° 234° (SW) 3,641 6.9 -25.1°
Reaches altitude 10° 20:58:43 10° 250° (WSW) 2,694 6.4 -25.4°
Maximum altitude 21:03:20 22° 299° (WNW) 1,986 6.2 -25.7°
Drops below altitude 10° 21:07:57 10° 348° (NNW) 2,696 7.3 -26.0°
Sets 21:11:07 0° 4° (N) 3,645 7.9 -26.3°
